FW0857 Weather Reports


time (UTC)temp
C
wind
direction
speed
KPH
gust
KPH
rain 1hr
cm
rain 24hr
cm
rain mn
cm
humidity
%
barometer
mb
20260510024506 15 82 4.8 8.0 0.00 0.00 0.00 41 991.4
20260510023103 17 82 4.8 8.0 0.00 0.00 0.00 36 991.3
20260510021553 19 62 0.0 3.2 0.00 0.00 0.00 35 991.1
20260510020050 23 62 0.0 6.4 0.00 0.00 0.00 28 990.9
20260510014553 25 61 6.4 11.3 0.00 0.00 0.00 16 990.9
20260510013048 25 360 4.8 9.7 0.00 0.00 0.00 11 990.8
20260510011544 26 20 12.9 19.3 0.00 0.00 0.00 11 990.6
20260510010056 26 13 6.4 11.3 0.00 0.00 0.00 12 990.5
20260510004544 27 327 8.0 14.5 0.00 0.00 0.00 12 990.4
20260510003054 27 325 9.7 19.3 0.00 0.00 0.00 11 990.5
20260510001545 27 10 9.7 20.9 0.00 0.00 0.00 12 990.6
20260510000048 27 293 6.4 19.3 0.00 0.00 0.00 14 990.6
20260509234546 27 350 8.0 19.3 0.00 0.00 0.00 11 990.5
20260509233036 27 225 3.2 17.7 0.00 0.00 0.00 13 990.7
20260509231508 27 338 11.3 19.3 0.00 0.00 0.00 11 990.8
20260509230006 27 80 14.5 19.3 0.00 0.00 0.00 12 991.0
20260509224532 27 47 9.7 24.1 0.00 0.00 0.00 12 991.1
20260509223031 28 19 8.0 16.1 0.00 0.00 0.00 11 991.2
20260509221600 28 286 3.2 16.1 0.00 0.00 0.00 13 991.4
20260509214550 27 182 3.2 12.9 0.00 0.00 0.00 12 991.9
20260509213048 27 104 6.4 16.1 0.00 0.00 0.00 13 992.1
20260509211546 27 68 11.3 24.1 0.00 0.00 0.00 13 992.4
20260509210043 27 301 1.6 14.5 0.00 0.00 0.00 15 992.7
20260509204553 27 177 9.7 16.1 0.00 0.00 0.00 13 993.1
20260509203036 27 94 11.3 20.9 0.00 0.00 0.00 16 993.6
20260509201531 27 62 3.2 25.7 0.00 0.00 0.00 14 993.8
20260509200036 27 348 9.7 19.3 0.00 0.00 0.00 14 993.9
20260509194537 26 321 3.2 12.9 0.00 0.00 0.00 15 994.0
20260509193033 26 298 4.8 12.9 0.00 0.00 0.00 18 994.3
20260509191519 26 184 11.3 22.5 0.00 0.00 0.00 15 994.5
20260509190016 26 246 4.8 12.9 0.00 0.00 0.00 15 994.5
20260509184512 25 293 1.6 20.9 0.00 0.00 0.00 19 994.9
20260509183008 25 146 4.8 22.5 0.00 0.00 0.00 18 995.1
20260509181505 25 125 14.5 20.9 0.00 0.00 0.00 17 995.4
20260509180100 24 213 11.3 25.7 0.00 0.00 0.00 16 995.5
20260509174603 24 203 8.0 16.1 0.00 0.00 0.00 17 995.6
20260509173059 23 139 9.7 29.0 0.00 0.00 0.00 17 995.9
20260509171553 23 181 3.2 20.9 0.00 0.00 0.00 18 995.9
20260509170047 23 136 12.9 20.9 0.00 0.00 0.00 20 996.0
20260509164546 23 333 8.0 19.3 0.00 0.00 0.00 17 995.8
20260509163038 22 109 4.8 17.7 0.00 0.00 0.00 19 996.1
20260509161534 22 259 1.6 14.5 0.00 0.00 0.00 23 996.4
20260509160032 20 180 4.8 12.9 0.00 0.00 0.00 24 996.5
20260509154535 18 328 4.8 11.3 0.00 0.00 0.00 25 996.7
20260509153007 18 301 0.0 8.0 0.00 0.00 0.00 27 996.8
20260509151503 17 338 3.2 9.7 0.00 0.00 0.00 30 997.0
20260509150031 16 319 0.0 8.0 0.00 0.00 0.00 34 997.2
20260509144531 16 157 0.0 3.2 0.00 0.00 0.00 35 997.3
20260509143034 14 157 0.0 3.2 0.00 0.00 0.00 33 997.1
20260509141529 13 102 0.0 3.2 0.00 0.00 0.00 37 997.1
20260509140046 11 100 0.0 1.6 0.00 0.00 0.00 40 997.0
20260509134526 10 99 0.0 1.6 0.00 0.00 0.00 44 997.1
20260509133023 8 99 0.0 0.0 0.00 0.00 0.00 50 996.9
20260509131533 6 99 0.0 0.0 0.00 0.00 0.00 63 996.9
20260509130024 4 360 0.0 8.0 0.00 0.00 0.00 59 996.8
20260509124515 4 109 1.6 8.0 0.00 0.00 0.00 55 996.5
20260509123100 5 108 3.2 8.0 0.00 0.00 0.00 50 996.4
20260509121653 5 110 6.4 9.7 0.00 0.00 0.00 49 996.2
20260509120044 5 109 4.8 9.7 0.00 0.00 0.00 47 996.2
20260509114535 6 109 6.4 11.3 0.00 0.00 0.00 45 996.1
20260509113027 6 99 9.7 17.7 0.00 0.00 0.00 45 995.9
20260509111522 5 101 8.0 12.9 0.00 0.00 0.00 53 995.9
20260509110014 2 110 6.4 9.7 0.00 0.00 0.00 62 995.9
20260509104507 2 115 3.2 8.0 0.00 0.00 0.00 66 995.8
20260509103057 3 115 0.0 3.2 0.00 0.00 0.00 65 995.7
20260509101547 3 115 1.6 8.0 0.00 0.00 0.00 61 995.5
20260509100037 5 117 3.2 8.0 0.00 0.00 0.00 54 995.4
20260509094535 5 112 1.6 8.0 0.00 0.00 0.00 51 995.3
20260509093003 5 114 3.2 6.4 0.00 0.00 0.00 53 995.2
20260509091501 6 115 4.8 9.7 0.00 0.00 0.00 50 995.3
20260509090108 6 110 4.8 9.7 0.00 0.00 0.00 49 995.4
20260509084559 6 106 6.4 9.7 0.00 0.00 0.00 51 995.4
20260509083058 6 118 4.8 8.0 0.00 0.00 0.00 50 995.6
20260509081547 6 121 4.8 9.7 0.00 0.00 0.00 47 995.6
20260509080048 7 119 4.8 9.7 0.00 0.00 0.00 45 995.6
20260509074543 7 101 6.4 11.3 0.00 0.00 0.00 48 995.6
20260509073046 7 109 8.0 11.3 0.00 0.00 0.00 46 995.5
20260509071538 7 111 8.0 11.3 0.00 0.00 0.00 46 995.6
20260509070037 7 118 6.4 11.3 0.00 0.00 0.00 46 995.8
20260509064505 7 105 6.4 11.3 0.00 0.00 0.00 45 995.9
20260509063003 7 107 8.0 12.9 0.00 0.00 0.00 46 996.0
20260509061600 7 107 6.4 11.3 0.00 0.00 0.00 47 996.0
20260509054611 7 121 6.4 9.7 0.00 0.00 0.00 46 995.9
20260509053132 7 108 3.2 9.7 0.00 0.00 0.00 48 995.8
20260509051522 7 109 4.8 11.3 0.00 0.00 0.00 48 995.7
20260509050021 7 109 6.4 9.7 0.00 0.00 0.00 52 995.7
20260509044516 7 107 3.2 8.0 0.00 0.00 0.00 56 995.7
20260509043013 8 360 1.6 4.8 0.00 0.00 0.00 55 995.6
20260509041508 10 360 1.6 6.4 0.00 0.00 0.00 48 995.4
20260509040006 10 360 3.2 8.0 0.00 0.00 0.00 40 995.2
20260509034537 11 360 8.0 11.3 0.00 0.00 0.00 41 994.9
20260509033032 11 360 8.0 9.7 0.00 0.00 0.00 39 994.6
20260509031530 11 105 8.0 11.3 0.00 0.00 0.00 40 994.4
20260509030027 10 360 8.0 11.3 0.00 0.00 0.00 43 994.3